Location: Franzen
(48.6167°N, 15.3833°E)
Time: 08:49:43
(UTC+00:00)

Cosmos 614 Rocket - Pass Details

Date: 22 April 2021
Orbit: 734 x 763 km, 74.1° (Epoch: 16 May)

Event Time Altitude Azimuth Distance (km) Brightness Sun altitude
Rises 19:19:51 0° 210° (SSW) 3,182 7.1 -12.4°
Reaches altitude 10° 19:22:14 10° 213° (SSW) 2,258 6.4 -12.7°
Maximum altitude 19:27:18 65° 296° (WNW) 817 4.4 -13.4°
Drops below altitude 10° 19:32:23 10° 18° (NNE) 2,256 6.7 -14.1°
Sets 19:34:46 0° 22° (NNE) 3,180 7.4 -14.4°
